RESURS-P 4

Last updated on Thu Nov 21 2024 00:02:28 GMT+0000 (Coordinated Universal Time)

1 59371U 24061A 24325.60587148 .00008748 00000+0 25341-3 0 9997 2 59371 97.2068 274.6829 0001800 75.5947 284.5496 15.35797088 35901
UTC large
Height (km)
Speed (km/s)
/
Latitude / Longitude
Inclination (degrees)
Orbital Period (minutes)
Azimuth
Elevation
Range (km)
Doppler Factor

Next 0 passes for location: London (51.5072 / 0.1276)

Sorry there are no passes over London.